Location: *
(43.9900°N, 3.4811°E)
Time: 04:03:51
(UTC+00:00)

ERS-1 Rocket - Pass Details

Date: 25 August 2019
Orbit: 753 x 758 km, 98.5° (Epoch: 18 September)

Event Time Altitude Azimuth Distance (km) Brightness Sun altitude
Exits shadow 21:18:50 78° 196° (SSW) 774 2.8 -25.7°
Maximum altitude 21:19:08 84° 256° (WSW) 764 2.9 -25.8°
Drops below altitude 10° 21:24:11 10° 345° (NNW) 2,288 6.3 -26.4°
Sets 21:26:29 0° 346° (NNW) 3,217 7.2 -26.6°
